Hourly Data Report for October 02, 2013

All times are specified in Local Standard Time (LST). Add 1 hour to adjust for Daylight Saving Time where and when it is observed.

PANGNIRTUNG
NUNAVUT

66°08'36.300" N
65°42'40.500" W
22.60 m
2403049
71826
WXP

Download Data

Hourly Data (October 2013)
Hourly Data Report for October 2, 2013
Temp Definition
°C
Dew Point Temp Definition
°C
Rel Hum Definition
%
Wind Dir Definition
10's deg

Wind Spd Definition
km/h
Visibility Definition
km
Stn Press Definition
kPa
Hmdx Definition


Wind Chill Definition


Weather Definition


TIME
00:00 -0.5 -3.3 81 8 6   100.17   -3 LegendNANA
01:00 -0.5 -3.5 80 9 9   100.19   -4 LegendNANA
02:00 0.1 -3.3 78 12 19   100.21     LegendNANA
03:00 -1.2 -4.0 81 9 7   100.21   -4 LegendNANA
04:00 -0.7 -3.9 79 6 9   100.22   -4 LegendNANA
05:00 -1.1 -4.2 79 11 7   100.23   -4 LegendNANA
06:00 -1.3 -4.0 82 10 9   100.26   -5 LegendNANA
07:00 -1.4 -4.1 82 9 11   100.27   -5 LegendNANA
08:00 -0.4 -4.0 77 9 7   100.30   -3 LegendNANA
09:00 0.0 -3.9 75 9 7   100.30   -2 LegendNANA
10:00 0.0 -4.0 74 3 13   100.30   -4 LegendNANA
11:00 0.3 -4.0 73 3 17   100.26     LegendNANA
12:00 0.6 -3.8 72 3 13   100.26     LegendNANA
13:00 0.8 -4.0 70 3 11   100.26     LegendNANA
14:00 1.4 -3.7 69 3 11   100.23     LegendNANA
15:00 0.9 -3.6 72 3 13   100.23     LegendNANA
16:00 0.1 -4.1 73 7 13   100.25     LegendNANA
17:00 -1.1 -4.4 78 8 7   100.29   -4 LegendNANA
18:00 -1.5 -4.4 81 8 15   100.32   -6 LegendNANA
19:00 -2.2 -5.0 81 8 9   100.32   -6 LegendNANA
20:00 -2.3 -5.2 80 7 7   100.32   -5 LegendNANA
21:00 -2.0 -5.4 78 8 7   100.33   -5 LegendNANA
22:00 -2.5 -5.4 80 8 7   100.33   -5 LegendNANA
23:00 -2.6 -5.5 80 7 7   100.34   -5 LegendNANA

Notes on Data Quality.

Legend

  • E = Estimated
  • M = Missing
  • NA = Not Available
  • ‡ = Partner data that is not subject to review by the National Climate Archives
Date modified: